Overview Statistics Trail Chart Weather Telemetry Raw packets
 

This is the latest recevied weather packets stored in our database for station/object KI6SYE. If no packets are shown the sender has not sent any weather packets the latest 10 day(s).

<< 72 73 74 75 76 77 78 >>
Time Temp. Humidity Pressure Rain* Wind** Luminosity Snow
1788164999 21.11° C 86% 1011.9 hPa 0 mm - 0 W/m² -
1788164694 21.11° C 86% 1012.2 hPa 0 mm - 0 W/m² -
1788164389 21.11° C 86% 1011.9 hPa 0 mm - 0 W/m² -
1788164085 21.67° C 85% 1011.9 hPa 0 mm - 0 W/m² -
1788163781 21.67° C 84% 1012.1 hPa 0 mm - 0 W/m² -
1788163480 21.67° C 82% 1012.1 hPa 0 mm - 0 W/m² -
1788163176 21.67° C 81% 1012 hPa 0 mm - 0 W/m² -
1788162872 21.67° C 81% 1011.9 hPa 0 mm - 0 W/m² -
1788162567 21.67° C 80% 1011.8 hPa 0 mm - 0 W/m² -
1788162261 21.67° C 80% 1012.1 hPa 0 mm - 0 W/m² -
1788161955 21.67° C 80% 1011.9 hPa 0 mm - 0 W/m² -
1788161654 21.67° C 79% 1011.9 hPa 0 mm - 0 W/m² -
1788161349 21.67° C 76% 1012 hPa 0 mm - 0 W/m² -
1788161045 21.67° C 74% 1011.8 hPa 0 mm - 0 W/m² -
1788160741 21.67° C 72% 1011.9 hPa 0 mm - 0 W/m² -
1788160440 21.67° C 72% 1011.9 hPa 0 mm - 0 W/m² -
1788160135 21.67° C 72% 1012 hPa 0 mm - 0 W/m² -
1788159834 21.67° C 72% 1011.9 hPa 0 mm - 0 W/m² -
1788159533 21.67° C 72% 1011.8 hPa 0 mm - 0 W/m² -
1788159231 21.11° C 79% 1011.8 hPa 0 mm - 0 W/m² -
1788158926 21.67° C 85% 1011.8 hPa 0 mm - 0 W/m² -
1788158621 21.67° C 87% 1011.7 hPa 0 mm - 0 W/m² -
1788158317 21.67° C 87% 1011.7 hPa 0 mm - 0 W/m² -
1788158013 21.67° C 88% 1011.6 hPa 0 mm - 0 W/m² -
1788157707 21.67° C 88% 1011.7 hPa 0 mm - 0 W/m² -

* Rain latest hour (hover to see other rain measurements)
** Current wind speed in m/s (hover to see current wind gust speed)